Lid_Strength_Index
3 3 2 2 2 2 2 3 3 2 2 2 2 2 2 2 2 2 2 2 2 2 2 2 2 3 5 11 12 9 6 5 3 4 6 7 8 9 11 10 10 10 10 13 13 12 12
3 3 3 3 2 2 3 3 3 3 3 3 3 3 3 3 3 3 2 2 3 2 2 1 2 3 8 14 9 9 9 5 4 5 5 6 7 7 9 10 10 10 12 14 13 14 13
4 3 3 3 3 3 3 3 3 3 3 3 3 3 4 3 3 3 3 3 3 3 2 1 2 7 10 12 9 9 8 7 5 4 6 5 5 7 8 10 9 9 12 13 15 15 15
4 4 3 3 3 3 3 4 4 3 3 3 4 3 4 3 4 4 3 3 3 3 2 2 5 6 12 9 9 11 10 8 7 7 6 8 10 12 14 13 12 13 12 14 16 16 15
4 4 4 4 4 4 3 4 4 4 4 4 4 4 4 4 4 4 4 3 3 3 3 4 8 8 13 9 13 12 11 12 10 9 10 11 12 15 14 15 14 15 16 17 17 16 16
4 4 4 4 4 4 3 4 4 4 4 4 4 4 4 4 4 4 5 4 5 6 8 8 9 11 12 14 13 12 11 11 12 12 12 13 14 16 16 16 17 19 19 18 18 17 17
5 4 4 4 4 4 4 4 4 4 4 4 4 4 4 5 5 6 6 7 9 11 11 14 14 14 14 12 12 14 13 12 12 14 16 16 17 20 20 19 19 19 19 20 18 17 18
5 5 5 4 4 4 4 4 4 4 4 4 4 4 4 6 7 7 7 10 11 10 15 12 13 14 13 13 16 15 12 15 16 18 16 17 21 19 18 19 20 20 21 20 19 18 18
4 5 5 5 5 4 4 4 5 5 5 5 5 4 4 6 7 8 9 11 9 8 12 13 14 15 15 14 18 17 15 16 18 19 19 20 20 19 20 20 21 21 21 21 22 19 18
5 5 5 5 5 4 4 5 5 5 5 5 5 4 6 6 8 11 11 11 8 7 13 16 16 16 15 14 18 15 15 16 18 20 20 21 19 20 21 21 20 22 19 20 20 21 22
5 5 5 5 5 5 5 5 5 5 5 5 5 5 8 8 11 11 11 10 7 8 17 16 16 13 15 17 18 17 15 16 20 20 19 22 21 21 21 21 20 21 18 19 20 21 21
5 5 5 5 5 5 6 6 6 5 5 5 5 6 9 10 10 12 10 7 7 13 16 17 17 18 19 18 18 17 17 16 17 19 19 21 18 19 20 19 19 18 19 20 19 20 24
5 5 5 5 5 5 5 6 6 5 5 5 6 9 10 11 12 11 8 8 13 15 17 19 20 19 20 21 20 19 20 21 21 22 23 21 21 19 18 20 19 19 20 23 24 24 23
6 6 6 5 5 5 6 6 6 5 5 5 7 10 12 13 11 9 8 13 15 19 20 18 19 19 21 21 21 20 21 22 20 21 22 24 24 21 19 20 22 21 21 24 28 25 23
6 6 6 6 6 6 6 6 6 5 5 5 8 10 11 12 11 9 12 15 18 20 20 20 20 21 21 20 21 21 22 22 21 20 24 24 25 20 19 18 19 21 22 19 22 20 22
6 6 6 6 6 6 6 6 6 6 6 8 9 12 13 13 12 11 13 19 20 19 19 19 21 21 22 22 22 21 22 21 21 20 19 22 25 21 19 18 18 19 18 21 19 24 24
5 6 6 6 6 6 7 7 6 6 6 9 11 12 12 13 12 14 17 20 20 19 18 19 20 21 22 22 22 22 22 21 20 20 19 20 23 22 20 21 21 19 19 18 17 17 20
5 6 6 7 7 7 7 7 7 7 7 11 12 14 13 12 15 17 19 19 18 19 18 19 19 20 21 22 22 22 22 21 18 19 21 19 22 24 23 19 18 17 18 17 19 19 17
4 5 6 7 7 7 7 7 7 7 9 12 14 15 12 13 16 20 20 20 19 20 20 20 21 20 20 21 23 22 21 18 18 19 20 19 22 25 24 21 18 18 16 15 15 16 19
4 5 6 7 7 7 7 7 7 7 9 12 14 15 15 16 17 18 20 21 22 19 19 19 20 19 21 22 21 22 22 19 18 18 16 17 21 23 25 23 18 19 16 15 15 18 18
4 5 6 7 7 7 7 8 7 7 10 12 16 19 19 19 19 19 19 20 21 21 19 19 20 21 22 23 23 23 21 21 19 17 18 19 23 22 20 18 17 16 15 15 16 16 19
4 4 6 7 7 8 8 8 8 8 11 14 15 17 18 20 20 20 20 21 21 21 20 21 21 21 21 22 22 23 21 21 21 19 19 19 22 22 21 17 16 17 15 15 15 16 16
4 4 5 7 8 9 8 9 8 9 12 14 17 17 16 20 21 20 21 21 21 20 20 19 20 21 22 21 19 19 18 19 19 20 20 20 21 22 23 19 17 19 17 16 16 15 16
4 5 6 7 8 9 9 9 9 10 12 13 15 16 17 21 20 20 21 20 21 20 21 20 20 21 20 18 18 19 19 19 19 18 18 20 22 21 22 19 24 18 14 15 16 15 14
3 4 5 7 8 9 9 10 10 10 12 14 16 15 17 21 20 21 21 21 20 20 20 20 19 19 18 19 21 23 23 22 21 19 20 18 20 21 22 21 17 19 16 17 18 17 17
4 4 5 7 7 9 9 10 10 10 11 14 15 14 15 19 21 19 21 20 21 21 21 21 19 18 19 20 22 25 25 24 24 23 20 20 19 19 20 22 23 17 15 14 15 21 16
3 4 5 6 7 9 9 10 9 10 11 13 15 15 15 19 19 19 20 20 20 21 21 21 20 20 19 22 23 24 24 22 24 25 24 22 21 21 19 19 17 15 14 14 21 20 15
3 4 5 6 8 9 9 9 10 10 11 13 16 15 15 19 19 18 18 20 20 20 21 21 21 21 21 23 22 22 23 22 23 23 23 22 22 21 20 20 22 14 14 18 16 14 15
3 4 5 6 8 9 9 9 9 10 11 12 16 15 14 17 19 18 18 18 17 18 19 20 21 21 20 21 22 22 22 24 24 24 22 22 19 18 17 16 14 13 14 13 14 15 15